Regional Weather Roundup
Issued by NWS

Home | Current Version | Previous Version | Text Only | Print | Product List | Glossary Off
Versions: 1 2 3 4 5 6 7 8 9 10 11 12 13 14 15 16 17 18 19 20 21 22 23 24 25 26 27 28

000
ASUS45 KPSR 221710
RWRAZ

ARIZONA HOURLY REGIONAL WEATHER ROUNDUP
NATIONAL WEATHER SERVICE PHOENIX AZ
1000 AM MST THU FEB 22 2018

NOTE: FAIR INDICATES FEW OR NO CLOUDS BELOW 12,000 FEET WITH NO
SIGNIFICANT WEATHER AND/OR OBSTRUCTIONS TO VISIBILITY.

AZZ001>003-036-221800-
NORTHWEST ARIZONA

CITY           SKY/WX    TMP DP  RH WIND       PRES   REMARKS
BULLHEAD CITY  SUNNY     41   9  26 SW5       30.19S
KINGMAN        SUNNY     43  12  28 SW16      30.11S
$$

AZZ004>008-015-016-018-221800-
NORTH CENTRAL ARIZONA

CITY           SKY/WX    TMP DP  RH WIND       PRES   REMARKS
GRAND CANYON   SUNNY     26   9  48 SW14      30.05R WCI  14
WILLIAMS       SUNNY     28   5  37 SW15      30.05R WCI  17
PRESCOTT       SUNNY     35   8  32 SW15      30.13R WCI  25
FLAGSTAFF      SUNNY     25   4  40 W14G23    30.05R WCI  13
PAYSON         SUNNY     36   5  27 SW10      30.14R WCI  28
PAGE           CLOUDY    34  17  50 VRB3      30.06S
$$

AZZ009>014-017-221800-
NORTHEAST ARIZONA

CITY           SKY/WX    TMP DP  RH WIND       PRES   REMARKS
WINSLOW        SUNNY     40   3  21 SW20      30.10S WCI  30
SAINT JOHNS    MOSUNNY   36   9  32 W17G24    30.10R WCI  26
SHOW LOW       MOSUNNY   30  12  47 S15G24    30.12R WCI  19
$$

AZZ540-542>544-546-548-221800-
GREATER PHOENIX AREA

CITY           SKY/WX    TMP DP  RH WIND       PRES   REMARKS
PHOENIX        SUNNY     50  17  27 E6        30.21R
BUCKEYE        SUNNY     48  14  25 S3        30.23R
GLENDALE       SUNNY     48  14  25 CALM      30.24R
LUKE AFB       SUNNY     48  13  24 CALM      30.21R
DEER VALLEY    SUNNY     48   8  19 VRB3      30.21R
SCOTTSDALE     SUNNY     49  11  21 SE3       30.22R
MESA-FALCON    SUNNY     50  14  23 E7        30.22R
MESA-GATEWAY   SUNNY     48  16  27 SE6       30.24R
CHANDLER       SUNNY     50  10  20 S7        30.22R
$$

AZZ539-553-221800-
SOUTHWEST MARICOPA COUNTY AND PINAL COUNTY

CITY           SKY/WX    TMP DP  RH WIND       PRES   REMARKS
CASA GRANDE      N/A     50  21  32 VRB3      30.23R
GILA BEND      SUNNY     53  22  30 SW5       30.23R
$$

AZZ503-504-507>509-221800-
SOUTHEAST ARIZONA

CITY           SKY/WX    TMP DP  RH WIND       PRES   REMARKS
TUCSON         SUNNY     48  19  31 CALM      30.24R
DAVIS-MONTHAN  SUNNY     47  26  43 NW3       30.22R
RYAN FIELD     SUNNY     46  28  49 CALM      30.25R
NOGALES        SUNNY     45  28  51 VRB5      30.21R
SIERRA VISTA   SUNNY     43  26  49 E6        30.20R
DOUGLAS        SUNNY     46  26  45 SW14G22   30.20R
SAFFORD        SUNNY     48  11  22 NW15      30.18R
$$

AZZ532-221800-
SOUTHWEST ARIZONA

CITY           SKY/WX    TMP DP  RH WIND       PRES   REMARKS
YUMA           SUNNY     52  33  48 W6        30.25R
$$

CAZ041-043-047-048-061-525>527-560>570-221800-
SOUTHERN CALIFORNIA

CITY           SKY/WX    TMP DP  RH WIND       PRES   REMARKS
DOWNTOWN L.A.  PTSUNNY   52  30  43 VRB5      30.24R
L.A. AIRPORT   MOSUNNY   54  36  50 E8        30.24R
SAN DIEGO      MOSUNNY   54  38  54 S8        30.28S
BURBANK        SUNNY     47  30  51 CALM      30.23R
ONTARIO        LGT RAIN  46  34  62 CALM      30.24R
RIVERSIDE      PTSUNNY   47  39  74 VRB3      30.24R
PALM SPRINGS   SUNNY     53  30  41 VRB3      30.21R
EL CENTRO NAS  MOSUNNY   58  30  34 W14         N/A
IMPERIAL       SUNNY     57  33  40 W13       30.23R
BLYTHE         SUNNY     46  15  28 CALM      30.21S
NEEDLES        SUNNY     49   6  17 CALM      30.18S
$$

NVZ020-UTZ003-221800-
SOUTHERN NEVADA-UTAH

CITY           SKY/WX    TMP DP  RH WIND       PRES   REMARKS
LAS VEGAS      MOSUNNY   45  13  27 SE12      30.08F
SALT LAKE CITY CLOUDY    30  14  51 SE15      29.97F WCI  19
$$

NMZ009-TXZ055-221800-
NEW MEXICO-WEST TEXAS

CITY           SKY/WX    TMP DP  RH WIND       PRES   REMARKS
ALBUQUERQUE    CLOUDY    36  22  56 NW3       30.09R
EL PASO        MOSUNNY   46  26  45 S9        30.14R
$$


........................KEY........................
SKY/WX - SKY CONDITION/WEATHER
TMP    - TEMPERATURE IN FAHRENHEIT
DP     - DEW POINT IN FAHRENHEIT
RH     - RELATIVE HUMIDITY IN PERCENT
WIND   - DIRECTION AND SPEED IN MILES PER HOUR (MPH)
VRB    - VARIABLE WIND DIRECTION
PRES   - MEAN SEA LEVEL PRESSURE IN INCHES OF MERCURY
         F - FALLING PRESSURE   R - RISING PRESSURE
         S - STEADY PRESSURE
VSB    - VISIBILITY IN MILES
HX     - HEAT INDEX IN FAHRENHEIT
WCI    - WIND CHILL INDEX IN FAHRENHEIT
TC     - TEMPERATURE IN CELSIUS WHICH IS ALSO KNOWN AS
         TEMPERATURE IN CENTIGRADE
AFB    - AIR FORCE BASE
         LUKE AFB IS LUKE AIR FORCE BASE
         DAVIS-MONTHAN IS DAVIS-MONTHAN AIR FORCE BASE
NAS    - NAVAL AIR STATION
         EL CENTRO NAS IS EL CENTRO NAVAL AIR STATION
N/A    - NOT AVAILABLE





USA.gov is the U.S. government's official web portal to all federal, state and local government web resources and services.